Regional Weather Roundup
Issued by NWS

Home | Current Version | Previous Version | Graphics & Text | Print | Product List | Glossary On
Versions: 1 2 3 4 5 6 7 8 9 10 11 12 13 14 15 16 17 18 19 20 21 22 23 24 25 26 27 28 29 30 31 32 33 34 35 36 37 38 39 40 41 42 43 44 45 46 47 48 49 50
000
ASUS43 KFSD 260510
RWRSD

WEATHER ROUNDUP FOR SOUTH DAKOTA
NATIONAL WEATHER SERVICE SIOUX FALLS SD
1200 AM CDT THU MAY 26 2016

NOTE: "FAIR" INDICATES FEW OR NO CLOUDS BELOW 12,000 FEET WITH NO
SIGNIFICANT WEATHER AND/OR OBSTRUCTIONS TO VISIBILITY.


SDZ001>005-009-010-012>017-260600-
NORTHWEST AND NORTH CENTRAL SOUTH DAKOTA

CITY           SKY/WX    TMP DP  RH WIND       PRES   REMARKS
BUFFALO          N/A     49  42  77 W7        29.80F
FAITH            N/A     55  40  56 CALM      29.85F
MOBRIDGE       CLEAR     53  48  83 N5        29.80R
$$

SDZ012>016-024>037-041>051-057-063-072>074-260600-
SOUTHWEST AND SOUTH CENTRAL SOUTH DAKOTA

CITY           SKY/WX    TMP DP  RH WIND       PRES   REMARKS
RAPID CTY ARPT PTCLDY    50  46  86 NW6       29.89F
PIERRE         CLEAR     52  48  86 CALM      29.84R
CUSTER         CLOUDY    44  39  82 CALM      29.97R
ELLSWORTH AFB  PTCLDY    50  47  89 NW5       29.88F
PHILIP         PTCLDY    52  49  89 W6        29.86F
PINE RIDGE     CLEAR     45  40  82 E6        29.91S
WINNER         FAIR      60  52  74 W5        29.87S
$$

SDZ004>011-016>023-039-040-260600-
NORTHEAST SOUTH DAKOTA

CITY           SKY/WX    TMP DP  RH WIND       PRES   REMARKS
ABERDEEN       CLEAR     57  50  77 NW6       29.79R
WATERTOWN      CLOUDY    60  53  77 SW12      29.79R
BROOKINGS      CLOUDY    59  52  77 SE7       29.81R
SISSETON         N/A     64  53  67 NW10      29.75R
$$

SDZ017-020-022-023-036>040-048>070-260600-
SOUTHEAST SOUTH DAKOTA

CITY           SKY/WX    TMP DP  RH WIND       PRES   REMARKS
SIOUX FALLS    CLOUDY    63  56  78 SE6       29.80R
HURON          CLEAR     60  53  77 W9        29.81R
CHAMBERLAIN    CLOUDY    60  55  82 NW5       29.86S
MITCHELL       CLEAR     63  58  83 CALM      29.83R
YANKTON        CLOUDY    61  55  82 SW6       29.80F
$$

ABBREVIATIONS USED IN REMARKS
   TC - TEMPERATURE IN CELSIUS
  WCI - WIND CHILL INDEX
   HX - HEAT INDEX
  VSB - VISIBILITY





USA.gov is the U.S. government's official web portal to all federal, state and local government web resources and services.